Location: Pedholt
(56.0260°N, 10.2097°E)
Time: 04:01:09
(UTC+00:00)

Transit 2A Rocket - Pass Details

Date: 06 August 2021
Orbit: 586 x 916 km, 66.7° (Epoch: 21 September)

Event Time Altitude Azimuth Distance (km) Brightness Sun altitude
Rises 13:43:21 0° 236° (WSW) 2,921 8.8 42.6°
Reaches altitude 10° 13:45:34 10° 241° (WSW) 2,055 8.3 42.4°
Maximum altitude 13:50:09 60° 321° (NW) 794 5.7 41.9°
Drops below altitude 10° 13:55:15 10° 42° (NE) 2,268 7.1 41.4°
Sets 13:57:48 0° 46° (NE) 3,253 7.8 41.1°
